Weather History for New Bedford, MA

Change the Weather History Date:

Thursday, February 13, 2014

  Actual Average Record
Temperature  
Mean Temperature 31 °F -  
Max Temperature 41 °F 36 °F 58 °F (1951)
Min Temperature 21 °F 21 °F -1 °F (1967)
Degree Days  
Heating Degree Days 34    
Moisture  
Dew Point 31 °F    
Average Humidity 91    
Maximum Humidity 97    
Minimum Humidity 78    
Precipitation  
Precipitation 1.53 in - - ()
Sea Level Pressure  
Sea Level Pressure 29.79 in    
Wind  
Wind Speed 9 mph (NE)    
Max Wind Speed 24 mph    
Max Gust Speed 37 mph    
Visibility 4 miles    
Events Rain , Snow    
Averages and records for this station are not official NWS values.
T = Trace of Precipitation, MM = Missing Value Source: NWS Daily Summary

Daily Weather History Graph

Daily Weather History Graph

Search for Another Location

Airport:

Trip Planner

Search our weather history database for the weather conditions in past years. The results will help you decide how hot, cold, wet, or windy it might be!

Date:

Astronomy

Feb. 13, 2014 Rise Set
Actual Time 6:41 AM EST 5:14 PM EST
Civil Twilight 6:13 AM EST 5:43 PM EST
Nautical Twilight 5:40 AM EST 6:15 PM EST
Astronomical Twilight 5:08 AM EST 6:48 PM EST
Moon 4:20 PM EST (2/13) 5:33 AM EST (2/13)
Length of Visible Light 11h 30m
Length of Day
10h 32m
Waxing Gibbous, 98% of the Moon is Illuminated
Feb 13
Waxing Gibbous
Feb 14
Full
Feb 22
Last Quarter
Mar 1
New
Mar 8
First Quarter

Hourly Weather History & Observations

Time (EST) Temp. Windchill Dew Point Humidity Pressure Visibility Wind Dir Wind Speed Gust Speed Precip Events Conditions
12:19 AM 21.0 °F 13.4 °F 15.1 °F 78% 30.38 in 10.0 mi NE 5.8 mph - N/A   Scattered Clouds
12:53 AM 21.0 °F 16.2 °F 15.1 °F 78% 30.36 in 10.0 mi NE 3.5 mph - N/A   Mostly Cloudy
1:53 AM 21.9 °F 17.2 °F 16.0 °F 78% 30.33 in 10.0 mi NE 3.5 mph - N/A   Scattered Clouds
2:53 AM 23.0 °F 15.8 °F 18.0 °F 81% 30.31 in 10.0 mi NE 5.8 mph - N/A   Overcast
3:27 AM 24.1 °F 18.2 °F 19.9 °F 84% 30.30 in 2.0 mi NE 4.6 mph - 0.00 in Snow Light Snow
3:40 AM 24.1 °F 19.7 °F 19.9 °F 84% 30.30 in 2.0 mi NNE 3.5 mph - 0.00 in Snow Light Snow
3:49 AM 24.8 °F 19.1 °F 21.2 °F 86% 30.29 in 1.5 mi NNE 4.6 mph - 0.00 in Snow Light Snow
3:53 AM 24.1 °F 18.2 °F 21.0 °F 88% 30.30 in 1.5 mi NNE 4.6 mph - 0.00 in Snow Light Snow
4:35 AM 25.0 °F 19.3 °F 23.0 °F 92% 30.27 in 2.0 mi NNE 4.6 mph - 0.01 in Snow Light Snow
4:53 AM 25.0 °F 18.1 °F 23.0 °F 92% 30.27 in 2.0 mi NE 5.8 mph - 0.01 in Snow Light Snow
5:27 AM 26.1 °F 19.4 °F 24.1 °F 92% 30.25 in 2.5 mi NE 5.8 mph - 0.00 in Snow Light Snow
5:37 AM 27.0 °F 19.5 °F 24.1 °F 89% 30.25 in 3.0 mi NE 6.9 mph - 0.00 in Snow Light Snow
5:53 AM 27.0 °F 19.5 °F 25.0 °F 92% 30.24 in 6.0 mi NE 6.9 mph - 0.00 in Snow Light Snow
6:53 AM 30.0 °F 21.1 °F 26.1 °F 85% 30.19 in 10.0 mi ENE 10.4 mph - 0.00 in   Overcast
7:08 AM 30.0 °F 21.7 °F 26.1 °F 85% 30.18 in 10.0 mi ENE 9.2 mph - N/A   Overcast
7:34 AM 30.9 °F 24.3 °F 27.0 °F 85% 30.17 in 10.0 mi ENE 6.9 mph - N/A   Overcast
7:49 AM 30.2 °F 21.9 °F 28.4 °F 93% 30.16 in 1.8 mi ENE 9.2 mph - 0.00 in Snow Light Snow
7:53 AM 30.9 °F 22.8 °F 28.0 °F 89% 30.16 in 1.5 mi ENE 9.2 mph - 0.00 in Snow Light Snow
8:20 AM 32.0 °F 24.2 °F 28.9 °F 88% 30.13 in 2.0 mi ENE 9.2 mph - 0.00 in Snow Light Snow
8:27 AM 32.0 °F 23.6 °F 30.0 °F 92% 30.13 in 1.5 mi ENE 10.4 mph - 0.00 in Snow Light Snow
8:53 AM 33.1 °F 24.4 °F 30.0 °F 89% 30.10 in 1.2 mi ENE 11.5 mph - 0.01 in Snow Light Snow
9:05 AM 33.1 °F 23.9 °F 30.9 °F 92% 30.09 in 3.0 mi ENE 12.7 mph - 0.00 in Snow Light Snow
9:26 AM 34.0 °F 25.5 °F 30.9 °F 89% 30.07 in 2.5 mi ENE 11.5 mph - 0.00 in Snow Light Snow
9:43 AM 34.0 °F 25.5 °F 30.9 °F 89% 30.05 in 1.5 mi ENE 11.5 mph - 0.01 in Snow Light Snow
9:53 AM 34.0 °F 26.0 °F 32.0 °F 92% 30.04 in 2.0 mi ENE 10.4 mph - 0.02 in Snow Light Snow
10:10 AM 34.0 °F 25.5 °F 32.0 °F 92% 30.01 in 1.8 mi ENE 11.5 mph - 0.02 in Snow Light Snow
10:23 AM 34.0 °F 25.0 °F 32.0 °F 92% 30.00 in 2.0 mi ENE 12.7 mph - 0.03 in Snow Light Snow
10:37 AM 34.0 °F 24.6 °F 32.0 °F 92% 29.98 in 3.0 mi ENE 13.8 mph - 0.05 in Snow Light Snow
10:53 AM 35.1 °F 26.4 °F 32.0 °F 89% 29.96 in 4.0 mi ENE 12.7 mph - 0.08 in Rain Rain
11:53 AM 35.1 °F 24.5 °F 33.1 °F 92% 29.84 in 3.0 mi NE 18.4 mph 25.3 mph 0.20 in Rain Rain
12:53 PM 37.9 °F 26.8 °F 35.1 °F 89% 29.73 in 3.0 mi NE 24.2 mph 36.8 mph 0.19 in Rain Rain
1:53 PM 39.0 °F 28.3 °F 37.0 °F 93% 29.61 in 1.8 mi NE 24.2 mph 32.2 mph 0.30 in Rain Heavy Rain
1:59 PM 39.0 °F 28.5 °F 37.0 °F 93% 29.59 in 2.0 mi NE 23.0 mph 34.5 mph 0.02 in Rain Heavy Rain
2:53 PM 39.9 °F 31.8 °F 37.9 °F 93% 29.53 in 2.0 mi NE 15.0 mph 32.2 mph 0.19 in Rain Rain
3:00 PM 39.9 °F 30.0 °F 37.9 °F 93% 29.52 in 1.5 mi NE 21.9 mph 28.8 mph 0.02 in Rain Rain
3:20 PM 39.9 °F 30.5 °F 37.9 °F 93% 29.49 in 1.2 mi NE 19.6 mph 28.8 mph 0.09 in Rain Rain
3:53 PM 39.9 °F 31.8 °F 37.9 °F 93% 29.45 in 1.5 mi NNE 15.0 mph 26.5 mph 0.16 in Rain Rain
4:06 PM 39.9 °F 31.4 °F 37.9 °F 93% 29.43 in 2.0 mi NNE 16.1 mph 23.0 mph 0.02 in Rain Light Rain
4:12 PM 39.9 °F 32.1 °F 37.9 °F 93% 29.43 in 2.0 mi NNE 13.8 mph 24.2 mph 0.03 in Rain Light Rain
4:33 PM 39.9 °F 32.5 °F 37.9 °F 93% 29.40 in 2.0 mi NNE 12.7 mph 23.0 mph 0.05 in Rain Light Rain
4:53 PM 39.9 °F 31.4 °F 37.9 °F 93% 29.38 in 2.5 mi NNE 16.1 mph 24.2 mph 0.06 in Rain Light Rain
5:21 PM 41.0 °F 32.8 °F 39.0 °F 93% 29.34 in 3.0 mi NNE 16.1 mph 25.3 mph 0.01 in Rain Light Rain
5:42 PM 41.0 °F 33.9 °F 39.0 °F 93% 29.33 in 4.0 mi NNE 12.7 mph 24.2 mph 0.01 in Rain Light Rain
5:53 PM 41.0 °F 33.5 °F 39.0 °F 93% 29.32 in 2.5 mi NNE 13.8 mph 24.2 mph 0.02 in Rain Light Rain
6:07 PM 41.0 °F 33.1 °F 39.0 °F 93% 29.30 in 3.0 mi North 15.0 mph 23.0 mph 0.02 in Rain Light Rain
6:33 PM 39.9 °F 32.5 °F 39.0 °F 97% 29.27 in 4.0 mi North 12.7 mph 17.3 mph 0.03 in Rain Light Rain
6:53 PM 41.0 °F 33.9 °F 39.0 °F 93% 29.28 in 3.0 mi North 12.7 mph - 0.03 in Rain Light Rain
7:53 PM 39.9 °F 33.4 °F 37.9 °F 93% 29.22 in 4.0 mi North 10.4 mph 23.0 mph 0.02 in Rain Light Rain
8:53 PM 39.0 °F 31.0 °F 37.9 °F 96% 29.17 in 2.5 mi NNE 13.8 mph 19.6 mph 0.00 in Rain Light Rain
9:14 PM 39.0 °F 32.3 °F 37.9 °F 96% 29.14 in 4.0 mi North 10.4 mph 19.6 mph 0.00 in Rain Light Rain
9:53 PM 39.0 °F 31.4 °F 37.0 °F 93% 29.11 in 4.0 mi North 12.7 mph 23.0 mph 0.01 in Rain Light Rain
10:02 PM 37.9 °F 29.6 °F 37.0 °F 97% 29.09 in 4.0 mi North 13.8 mph 20.7 mph 0.01 in Rain Light Rain
10:35 PM 37.9 °F 28.5 °F 37.0 °F 97% 29.03 in 7.0 mi NNE 17.3 mph 23.0 mph 0.06 in Rain Light Rain
10:53 PM 37.9 °F 29.2 °F 36.0 °F 93% 29.01 in 10.0 mi NNE 15.0 mph 25.3 mph 0.06 in Rain Light Rain
11:53 PM 37.9 °F 35.5 °F 36.0 °F 93% 28.98 in 5.0 mi Variable 3.5 mph - 0.17 in Rain Light Rain